Simultaneous Nadir Overpasses (SNOs) Predictions

Prediction of SNOs between METOP-B and TERRA Satellite Orbit:

Table of predicted SNOs for the next 14.0 days since TLE Epoch: 11/11/2023
Index Date (METOP-B) Time (METOP-B) Lat,Lon (METOP-B) SZA (METOP-B ) Date (TERRA) Time (TERRA) Lat,Lon (TERRA) SZA (TERRA ) Distance(km) Time Diff (sec)
1 11/13/2023 12:52:44 80.54, 14.08 99.78 11/13/2023 12:53:57 80.54, 14.15 99.81 1.16 73
2 11/13/2023 13:43:20 -80.66,-176.89 79.97 11/13/2023 13:43:16 -80.66,-177.00 79.98 2.03 4
3 11/16/2023 05:04:15 80.65, 132.79 100.69 11/16/2023 05:04:14 80.65, 132.66 100.68 2.40 1
4 11/18/2023 20:25:13 -80.61, 81.95 78.77 11/18/2023 20:25:15 -80.61, 82.00 78.76 0.97 2
5 11/21/2023 11:46:09 80.59, 31.43 101.78 11/21/2023 11:46:13 80.59, 31.52 101.79 1.49 4
6 11/21/2023 12:36:45 -80.71,-159.48 77.97 11/21/2023 12:35:32 -80.70,-159.65 78.01 3.00 73
7 11/24/2023 03:07:04 -80.61, -18.53 77.64 11/24/2023 03:07:11 -80.60, -18.67 77.66 2.68 7



Historial Predications of SNOs between METOP-B and TERRA
